VE1AIC-4 Weather Reports


Display with metric or nautical units.
time (UTC)temp
F
wind
direction
speed
MPH
gust
MPH
rain 1hr
in
rain 24hr
in
rain mn
in
humidity
%
barometer
mb
20260507185121 52 207 2.0 7.0 0.02 0.39 0.39 97 999.3
20260507184119 52 215 2.0 9.0 0.02 0.38 0.38 97 999.3
20260507183025 51 216 3.0 7.0 0.02 0.38 0.38 97 999.6
20260507182036 51 223 1.0 3.0 0.03 0.38 0.38 97 999.4
20260507181117 51 246 1.0 3.0 0.04 0.38 0.38 97 999.5
20260507180047 51 237 1.0 5.0 0.04 0.38 0.38 97 999.0
20260507175039 51 230 4.0 10.0 0.04 0.37 0.37 97 1000.2
20260507174039 51 179 12.0 21.0 0.04 0.36 0.36 97 1000.1
20260507173029 51 174 13.0 21.0 0.05 0.36 0.36 97 999.1
20260507172039 51 167 7.0 10.0 0.06 0.35 0.35 97 998.8
20260507171020 51 161 8.0 14.0 0.07 0.34 0.34 97 998.7
20260507170031 51 176 9.0 14.0 0.09 0.34 0.34 97 999.8
20260507165121 51 176 9.0 14.0 0.11 0.33 0.33 97 999.9
20260507164021 51 178 9.0 12.0 0.13 0.32 0.32 97 999.9
20260507163053 52 187 9.0 14.0 0.15 0.31 0.31 97 1000.1
20260507162119 53 169 9.0 15.0 0.16 0.29 0.29 97 1000.2
20260507161055 53 185 6.0 10.0 0.15 0.27 0.27 97 1000.3
20260507160125 53 183 6.0 10.0 0.16 0.25 0.25 97 1000.1
20260507155045 53 186 9.0 14.0 0.15 0.22 0.22 96 1000.4
20260507154046 52 182 9.0 15.0 0.14 0.19 0.19 96 1000.6
20260507153039 52 190 8.0 12.0 0.14 0.16 0.16 96 1001.0
20260507152016 52 206 7.0 14.0 0.11 0.13 0.13 95 1001.3
20260507151047 52 199 8.0 15.0 0.10 0.12 0.12 95 1001.2
20260507150141 53 183 11.0 21.0 0.07 0.09 0.09 95 1001.6
20260507145018 53 179 8.0 14.0 0.05 0.07 0.07 94 1001.6
20260507144133 54 192 10.0 15.0 0.03 0.05 0.05 93 1001.3
20260507143042 54 186 9.0 14.0 0.00 0.02 0.02 93 1001.4
20260507142020 55 188 14.0 24.0 0.00 0.02 0.02 92 1001.2
20260507141032 55 170 14.0 21.0 0.00 0.02 0.02 92 1001.2
20260507140042 54 184 14.0 21.0 0.00 0.02 0.02 92 1001.3
20260507135043 54 171 14.0 21.0 0.00 0.02 0.02 92 1001.1
20260507134034 54 185 18.0 29.0 0.00 0.02 0.02 92 1001.5
20260507133044 54 175 19.0 27.0 0.00 0.02 0.02 92 1001.8
20260507132024 54 193 18.0 27.0 0.00 0.02 0.02 92 1001.7
20260507131106 54 189 21.0 34.0 0.00 0.02 0.02 92 1001.6
20260507130046 54 180 20.0 31.0 0.00 0.02 0.02 93 1001.8
20260507125030 53 179 24.0 36.0 0.00 0.02 0.02 93 1001.6
20260507124117 53 181 17.0 27.0 0.00 0.02 0.02 93 1001.9
20260507123017 53 181 19.0 31.0 0.00 0.02 0.02 93 1002.2
20260507122032 53 183 25.0 31.0 0.00 0.02 0.02 93 1001.8
20260507121039 53 197 24.0 36.0 0.00 0.02 0.02 93 1002.0
20260507120019 53 179 27.0 36.0 0.00 0.02 0.02 93 1001.4
20260507115036 53 182 31.0 39.0 0.00 0.02 0.02 92 1001.6
20260507114041 53 191 32.0 46.0 0.01 0.02 0.02 92 1001.9
20260507113023 52 180 31.0 41.0 0.01 0.02 0.02 92 1002.1
20260507112124 52 182 33.0 43.0 0.01 0.02 0.02 92 1002.1
20260507111048 52 184 33.0 41.0 0.01 0.02 0.02 92 1002.0
20260507110124 52 184 33.0 46.0 0.01 0.02 0.02 92 1002.1
20260507105034 51 188 29.0 45.0 0.01 0.02 0.02 92 1002.5
20260507104046 51 187 25.0 32.0 0.00 0.01 0.01 92 1002.2
20260507103026 51 186 26.0 36.0 0.00 0.01 0.01 91 1002.3
20260507102037 51 183 22.0 32.0 0.00 0.01 0.01 90 1002.5
20260507101017 52 183 22.0 29.0 0.00 0.01 0.01 89 1002.6
20260507100028 52 190 23.0 29.0 0.00 0.01 0.01 88 1002.7
20260507095104 52 178 26.0 31.0 0.00 0.01 0.01 88 1002.8
20260507094049 52 187 22.0 29.0 0.00 0.01 0.01 88 1003.0
20260507093029 51 181 17.0 21.0 0.00 0.01 0.01 89 1003.0
20260507092041 51 148 15.0 21.0 0.00 0.01 0.01 89 1003.1
20260507091055 51 164 15.0 24.0 0.00 0.01 0.01 89 1003.2
20260507090032 51 165 16.0 24.0 0.00 0.01 0.01 89 1003.5
20260507085042 52 164 15.0 26.0 0.00 0.01 0.01 87 1003.6
20260507084022 52 167 21.0 32.0 0.00 0.01 0.01 87 1003.7
20260507083053 52 169 18.0 26.0 0.00 0.01 0.01 87 1003.7
20260507082054 52 166 23.0 39.0 0.00 0.01 0.01 86 1003.9
20260507081025 52 170 18.0 29.0 0.00 0.01 0.01 87 1004.1
20260507080036 51 169 15.0 26.0 0.00 0.01 0.01 88 1004.4
20260507075047 51 164 14.0 22.0 0.00 0.01 0.01 88 1004.8
20260507074059 51 177 16.0 22.0 0.00 0.01 0.01 88 1005.0
20260507073038 51 168 17.0 24.0 0.01 0.01 0.01 88 1005.0
20260507072017 51 162 14.0 26.0 0.01 0.01 0.01 88 1005.4
20260507071028 52 170 18.0 24.0 0.01 0.01 0.01 87 1005.3
20260507070039 53 168 18.0 24.0 0.01 0.01 0.01 87 1005.3
20260507065019 52 181 22.0 29.0 0.01 0.01 0.01 88 1005.9
20260507064030 51 181 18.0 27.0 0.01 0.01 0.01 89 1005.5
20260507063042 52 181 22.0 27.0 0.00 0.00 0.00 86 1006.5
20260507062023 53 179 22.0 29.0 0.00 0.00 0.00 84 1006.4
20260507061033 53 182 26.0 34.0 0.00 0.00 0.00 83 1006.8
20260507060114 53 188 24.0 32.0 0.00 0.00 0.00 83 1006.7
20260507055054 53 177 27.0 36.0 0.00 0.00 0.00 83 1006.8
20260507054125 53 184 26.0 34.0 0.00 0.00 0.00 83 1006.9
20260507053046 52 183 25.0 34.0 0.00 0.00 0.00 84 1007.5
20260507052048 52 178 23.0 32.0 0.00 0.00 0.00 84 1007.6
20260507051044 52 187 20.0 26.0 0.00 0.00 0.00 85 1007.2
20260507050047 52 187 20.0 27.0 0.00 0.00 0.00 85 1008.0
20260507045028 52 180 20.0 29.0 0.00 0.00 0.00 86 1008.2
20260507044038 52 176 22.0 31.0 0.00 0.00 0.00 85 1008.4
20260507043019 52 181 21.0 31.0 0.00 0.00 0.00 86 1008.8
20260507042029 52 171 21.0 29.0 0.00 0.00 0.00 85 1008.5
20260507041018 53 181 22.0 29.0 0.00 0.00 0.00 84 1009.1
20260507040021 54 173 26.0 36.0 0.00 0.00 0.00 83 1008.9
20260507035051 53 192 24.0 32.0 0.00 0.00 0.00 84 1008.9
20260507034044 52 185 22.0 36.0 0.00 0.00 0.00 85 1009.0
20260507033023 53 177 22.0 32.0 0.00 0.00 0.00 84 1009.1
20260507032106 54 181 23.0 29.0 0.00 0.00 0.00 84 1009.4
20260507031044 55 183 26.0 36.0 0.00 0.00 0.00 83 1009.7
20260507030158 55 180 24.0 36.0 0.00 0.00 0.00 83 1009.6
20260507025036 56 182 28.0 41.0 0.00 0.00 0.00 82 1009.9
20260507024127 56 180 30.0 45.0 0.00 0.00 0.00 82 1010.2
20260507023027 55 192 28.0 41.0 0.00 0.00 0.00 83 1010.5
20260507022037 55 196 25.0 36.0 0.00 0.00 0.00 83 1010.3
20260507021017 55 185 25.0 38.0 0.00 0.00 0.00 83 1010.6
20260507020028 56 183 24.0 32.0 0.00 0.00 0.00 83 1010.8
20260507015039 57 179 26.0 36.0 0.00 0.00 0.00 82 1010.9
20260507014019 57 190 28.0 36.0 0.00 0.00 0.00 82 1011.0
20260507013033 57 190 30.0 38.0 0.00 0.00 0.00 81 1011.0
20260507012042 58 189 31.0 45.0 0.00 0.00 0.00 81 1011.1
20260507011023 58 171 30.0 45.0 0.00 0.00 0.00 80 1011.2
20260507010032 58 188 30.0 43.0 0.00 0.00 0.00 80 1011.4
20260507005043 59 185 31.0 39.0 0.00 0.00 0.00 79 1011.4
20260507004023 59 182 32.0 41.0 0.00 0.00 0.00 80 1011.5
20260507003055 59 182 31.0 45.0 0.00 0.00 0.00 80 1011.4
20260507002045 59 181 32.0 43.0 0.00 0.00 0.00 80 1011.3
20260507001025 59 188 31.0 43.0 0.00 0.00 0.00 79 1011.2
20260507000159 58 184 33.0 43.0 0.00 0.00 0.00 80 1011.1
20260506235017 59 186 33.0 46.0 0.00 0.00 0.00 79 1011.0
20260506234028 58 182 32.0 45.0 0.00 0.00 0.00 80 1010.8
20260506233038 58 197 31.0 43.0 0.00 0.00 0.00 80 1010.7
20260506232018 58 182 33.0 41.0 0.00 0.00 0.00 79 1010.9
20260506231029 58 185 32.0 43.0 0.00 0.00 0.00 78 1010.8
20260506230041 59 180 32.0 39.0 0.00 0.00 0.00 78 1010.8
20260506225021 59 190 31.0 41.0 0.00 0.00 0.00 77 1010.6
20260506224033 60 184 34.0 43.0 0.00 0.00 0.00 76 1010.7
20260506223103 61 185 33.0 43.0 0.00 0.00 0.00 75 1010.7
20260506222028 59 185 30.0 46.0 0.00 0.00 0.00 76 1010.7
20260506221033 60 174 32.0 43.0 0.00 0.00 0.00 75 1010.5
20260506220044 60 181 31.0 41.0 0.00 0.00 0.00 74 1010.6
20260506215025 61 181 32.0 41.0 0.00 0.00 0.00 73 1010.5
20260506214036 61 186 33.0 48.0 0.00 0.00 0.00 72 1010.4
20260506213047 61 180 32.0 41.0 0.00 0.00 0.00 72 1010.2
20260506212027 61 189 33.0 46.0 0.00 0.00 0.00 72 1010.1
20260506211037 60 189 31.0 41.0 0.00 0.00 0.00 73 1010.0
20260506210017 61 186 33.0 41.0 0.00 0.00 0.00 72 1010.0
20260506205028 60 183 32.0 43.0 0.00 0.00 0.00 73 1009.9
20260506204040 61 190 29.0 41.0 0.00 0.00 0.00 73 1010.0
20260506203040 60 182 27.0 36.0 0.00 0.00 0.00 74 1009.9
20260506202031 60 181 23.0 32.0 0.00 0.00 0.00 74 1009.9
20260506201114 62 181 25.0 34.0 0.00 0.00 0.00 72 1010.1
20260506200052 63 180 31.0 39.0 0.00 0.00 0.00 71 1010.0
20260506195032 63 185 33.0 45.0 0.00 0.00 0.00 71 1010.0
20260506194140 62 191 29.0 38.0 0.00 0.00 0.00 72 1010.1
20260506193126 66 180 21.0 29.0 0.00 0.00 0.00 69 1010.2
20260506192034 66 189 24.0 41.0 0.00 0.00 0.00 67 1010.4
20260506191117 66 181 23.0 32.0 0.00 0.00 0.00 68 1010.5
20260506190046 66 180 24.0 38.0 0.00 0.00 0.00 68 1010.6